Regional Weather Roundup
Issued by NWS

Home | Current Version | Previous Version | Graphics & Text | Print | Product List | Glossary On
Versions: 1 2 3 4 5 6 7 8 9 10 11 12 13 14 15 16 17 18 19 20 21 22 23 24 25 26 27 28 29 30 31 32 33 34 35 36 37 38 39 40 41 42 43 44 45 46 47 48 49 50
000
ASUS45 KSLC 050810
RWRUT

UTAH REGIONAL WEATHER ROUNDUP
NATIONAL WEATHER SERVICE SALT LAKE CITY UT
200 AM MDT SUN JUL 05 2015

UTZ001>011-023>025-050900-

NORTHERN UTAH

CITY           SKY/WX    TMP DP  RH WIND       PRES   REMARKS
BRIGHAM CITY   CLOUDY    80  54  41 MISG      29.95S
HILL AFB       CLOUDY    78  55  45 SW6       29.98F
LOGAN          CLEAR     80  51  36 S9        29.95S
OGDEN          CLOUDY    79  54  41 SE5       29.95F
PROVO AIRPORT  CLOUDY    73  54  49 SE10      30.00R
SALT LAKE CITY CLOUDY    79  58  48 SE6       29.94S
VERNAL         CLOUDY    76  51  41 CALM      30.05R
WENDOVER       CLOUDY    79  52  38 N5        29.97F
HEBER CITY     CLOUDY    66  54  63 S3        30.07S
WEST JORDAN    CLEAR     75  52  43 SW3       29.98S

$$

UTZ012>022-026-027-050900-

SOUTHERN/CENTRAL UTAH

CITY           SKY/WX    TMP DP  RH WIND       PRES   REMARKS
BLANDING       CLOUDY    63  60  90 N3        30.26F
BRYCE CANYON   CLOUDY    60  53  77 W7        30.25F
CEDAR CITY     MOCLDY    69  49  48 SE7       30.11S
DELTA          CLOUDY    75  51  43 S6        30.01S
HANKSVILLE     CLOUDY    66  63  88 SE9       30.11R
MILFORD        CLOUDY    75  48  38 SW10      30.04S
MOAB/CYNLANDS  LGT RAIN  67  64  90 S5        30.09F
PRICE          CLOUDY    66  57  72 SE15      30.18R
ST GEORGE      CLOUDY    82  46  28 SE3       29.93S
KANAB          PTCLDY    64  54  68 CALM      30.13S

$$

REGIONAL REPORTS     COLORADO/ARIZONA

CITY           SKY/WX    TMP DP  RH WIND       PRES   REMARKS
CRAIG, CO      MOCLDY    64  51  62 E6        30.11S
GRAND JUNCTION CLOUDY    67  60  78 N25       30.09R
RIFLE          CLOUDY    64  58  80 E7        30.12R
MONTROSE       CLOUDY    73  50  44 VRB3      30.16R
CORTEZ         MOCLDY    64  58  80 NE7       30.21F
PAGE, AZ       MOCLDY    81  52  36 S6        30.00S
GRAND CANYON   PTCLDY    56  52  86 CALM      30.22F
KINGMAN        CLEAR     79  51  37 SW10      29.97F
FLAGSTAFF      PTCLDY    56  55  97 CALM      30.27S

$$

REGIONAL REPORTS    NEVADA/IDAHO/WYOMING

CITY           SKY/WX    TMP DP  RH WIND       PRES   REMARKS
LAS VEGAS, NV  PTCLDY    91  50  24 S8        29.79S
ELY            MOCLDY    64  52  64 S7        30.14F
ELKO           CLOUDY    68  54  60 W9        30.08S
POCATELLO, ID  CLEAR     78  47  33 SW14      29.93R
BURLEY         CLOUDY    76  51  41 SW12      29.91R
EVANSTON, WY   MOCLDY    65  49  56 S5        30.15F
ROCK SPRINGS   MOCLDY    70  45  40 SW16      30.09F
KEMMERER       MOCLDY    64  45  48 W7        30.15F

$$


USA.gov is the U.S. government's official web portal to all federal, state and local government web resources and services.